Flag for Spain Weather past 2 weeks in Bilbao, Spain

Now
61 °F

Broken clouds.


Feels Like: 61 °F
Forecast: 62 / 75 °F
Wind: 3 mph from South

Location: Bilbao / Sondica

Current Time: Jul 31, 2015 at 9:51:53 AM

Latest Report: Jul 31, 2015 at 9:30 AM


Visibility: N/A

Pressure: 29.89 "Hg

Humidity: 100%

Dew point: 61 °F

Location of BilbaoLocation

Historic Weather in Bilbao — Graph

°F

Bilbao temperature yesterday

Maximum temperature yesterday: 73 °F (at 4:00 PM)
Minimum temperature yesterday: 61 °F (at 7:30 AM)
Average temperature yesterday: 66 °F

Past Weeks' High & Low Weather Summary

 TemperatureHumidityPressure
High91 °F (Jul 18, 1:30 PM)100% (Jul 16, 8:30 AM)30.21 "Hg (Jul 16, 8:30 AM)
Low57 °F (Jul 26, 5:30 AM)29% (Jul 26, 1:00 PM)29.86 "Hg (Jul 24, 1:00 PM)
Average73 °F76%30.03 "Hg
* Reported Jul 16 8:00 AM — Jul 31 8:30 AM, Bilbao, Weather by CustomWeather, © 2015

Note: Actual official high and low records may vary slightly from our data, if they occured in-between our weather recording intervals... More about our weather records

Advertising

Bilbao weather history for previous 24 hours

 ConditionsComfort  
Time TempWeatherWind HumidityBarometerVisibility
8:30 AM
Fri, Jul 31
61 °FThunderstorms. Broken clouds.2 mph100%29.92 "Hg1 mi
8:00 AM61 °FThunderstorms. Broken clouds.1 mph94%29.89 "HgN/A
7:30 AM61 °FLight rain. Partly cloudy.1 mph94%29.89 "HgN/A
7:00 AM61 °FLight rain. Partly cloudy.6 mph88%29.86 "Hg4 mi
6:30 AM63 °FPartly cloudy.No wind83%29.89 "HgN/A
6:00 AM63 °FPartly cloudy.1 mph83%29.86 "HgN/A
5:30 AM63 °FPassing clouds.1 mph83%29.89 "HgN/A
5:00 AM63 °FPassing clouds.No wind83%29.89 "HgN/A
11:30 PM
Thu, Jul 30
63 °FPassing clouds.No wind77%30.01 "HgN/A
11:00 PM63 °FPassing clouds.No wind77%30.04 "HgN/A
10:30 PM66 °FPassing clouds.No wind68%30.01 "HgN/A
10:00 PM64 °FPassing clouds.2 mph73%30.01 "HgN/A
9:30 PM66 °FPassing clouds.3 mph64%30.01 "HgN/A
9:00 PM68 °FScattered clouds.6 mph60%30.01 "HgN/A
8:30 PM68 °FScattered clouds.8 mph64%30.01 "HgN/A
8:00 PM68 °FScattered clouds.8 mph64%30.01 "HgN/A
7:30 PM70 °FScattered clouds.8 mph60%30.01 "HgN/A
7:00 PM70 °FScattered clouds.12 mph60%30.01 "HgN/A
6:30 PM72 °FScattered clouds.10 mph57%30.01 "HgN/A
6:00 PM72 °FBroken clouds.10 mph57%30.01 "HgN/A
5:30 PM70 °FBroken clouds.8 mph64%30.04 "HgN/A
5:00 PM72 °FBroken clouds.9 mph57%30.04 "HgN/A
4:30 PM72 °FBroken clouds.7 mph57%30.04 "HgN/A
4:00 PM73 °FBroken clouds.8 mph53%30.04 "HgN/A
3:30 PM72 °FBroken clouds.6 mph57%30.04 "HgN/A
3:00 PM70 °FBroken clouds.7 mph57%30.07 "HgN/A
2:30 PM70 °FBroken clouds.5 mph60%30.07 "HgN/A
2:00 PM68 °FBroken clouds.6 mph64%30.07 "HgN/A
1:30 PM68 °FBroken clouds.2 mph69%30.07 "HgN/A
1:00 PM66 °FBroken clouds.3 mph78%30.07 "HgN/A
12:30 PM66 °FLight rain. Broken clouds.5 mph78%30.07 "HgN/A
12:00 PM66 °FBroken clouds.5 mph73%30.07 "HgN/A
11:30 AM66 °FBroken clouds.1 mph83%30.07 "HgN/A
11:00 AM66 °FPartly sunny.No wind83%30.07 "HgN/A
10:30 AM64 °FPartly sunny.No wind88%30.07 "HgN/A
10:00 AM64 °FPartly sunny.No wind94%30.07 "HgN/A
9:30 AM63 °FPartly sunny.No wind94%30.07 "HgN/A
9:00 AM63 °FPartly sunny.No wind94%30.07 "HgN/A
Weather by CustomWeather, © 2015

See weather overviewHow to use our weather pages